Tracking 19794 objects as of 21-Jul-2019
HD Live streaming from Space Station
objects crossing your sky now

FENGYUN 1C DEB

Track FENGYUN 1C DEB now!
10-day predictions


NORAD ID: 30656
Int'l Code: 1999-025APN
Perigee: 805.8 km
Apogee: 877.0 km
Inclination: 99.0 °
Period: 101.6 minutes
Semi major axis: 7212 km
RCS: 0.021 m2 (small)
Launch date: May 10, 1999
Source: People's Republic of China (PRC)
Launch site: Taiyaun Space Center, China (TSC)

Note: This is SATELLITE DEBRIS
aabbcc
Your satellite tracking list
Your tracking list is empty




NASA's NSSDC Master Catalog

Two Line Element Set (TLE):
1 30656U 99025APN 19202.48488516  .00000582  00000-0  30651-3 0  9996
2 30656  98.9686 291.0774 0049334 330.1024  29.7334 14.17378967639036
Source of the keplerian elements: AFSPC